STARLINK-5738 (55573 NORAD) Tracking and Keplerian Element Data

This shows tracking and keplerian element data for the satellite.

Feedback or suggestion? Click here.




ElementValue
Catalog55573
NameSTARLINK-5738
Epoch Orbit130
Epoch Day84.91667824
Epoch Year2023
RAAN112.2216
Inclination42.9965
Eccentricity0.0001208
Argument of Perigee272.4369
Mean Anonmoly271.8766
Mean Motion15.06060339
Decay Rate-0.01171469
L11 55573U 23020E 23084.91667824 -.01171469 00000+0 -85965-1 0 9996
L22 55573 42.9965 112.2216 0001208 272.4369 271.8766 15.06060339 1305



Live tracking and technical data element details for STARLINK-5738 (NORAD 55573). STARLINK-5738 can be tracked NOW for your location showing map with azimuth and elevation plus other details from your city location.







IsCatalogInMostPopularTable: catalog: 55573, numindb: -1

Insert: records affected: 1


GetName: 55573 STARLINK-5738

Hit Count: inserted at: Tue, 28 Mar 2023 03:15:55 GMT